Temp
20 20 20 21 21 22 22 23 23 24 24 24 25 25 26 26 27 27 29 30 29 29 29 29 30 29 27 27 28 29 23 23 24 25 27 31 28 30 30 27 27 26 26 26 24
20 20 20 21 21 22 22 23 23 23 24 24 25 25 26 26 27 28 30 30 29 29 29 29 30 29 28 29 30 27 22 25 27 27 28 31 29 30 30 28 26 26 26 24 24
19 20 20 21 21 22 22 23 23 23 24 24 25 25 26 26 27 29 29 29 29 29 29 29 30 29 29 31 31 30 27 30 30 31 31 30 29 29 28 27 27 24 24 24 24
19 20 20 21 21 22 23 23 23 24 24 25 25 25 26 27 26 29 29 29 29 29 29 30 30 29 28 28 31 30 31 32 33 32 31 29 29 28 30 29 27 26 25 24 24
19 20 20 21 22 22 23 23 24 24 24 25 25 25 25 26 28 29 29 29 29 29 29 29 30 29 28 29 30 30 31 32 33 33 31 29 28 29 29 28 26 25 25 24 24
19 20 20 21 22 22 23 24 24 24 24 25 25 25 25 24 29 29 29 29 29 29 29 29 30 31 30 29 29 31 31 32 32 30 29 28 28 28 29 27 26 25 25 24 24
19 19 20 21 22 22 23 24 24 24 25 25 25 25 25 28 29 28 29 29 29 30 29 30 30 30 31 28 31 31 28 29 31 31 29 30 27 27 30 28 26 25 25 25 24
18 19 20 20 22 22 23 24 25 25 25 25 25 25 26 29 29 29 29 29 29 29 29 30 31 31 31 31 29 28 26 27 29 31 31 31 27 27 31 28 27 26 25 26 24
18 19 19 20 21 22 23 24 25 25 25 25 24 24 26 29 29 30 29 29 30 30 30 31 31 31 31 26 23 23 26 27 29 30 31 30 28 28 32 27 27 25 25 24 20
17 18 19 20 20 22 23 24 25 25 25 25 24 24 28 29 29 30 30 29 30 30 30 30 30 25 22 22 23 25 26 26 27 29 31 28 27 28 31 29 27 25 25 22 20
17 18 19 20 20 21 24 24 25 24 24 25 25 26 28 29 29 30 30 30 30 30 27 29 25 24 24 24 26 26 27 27 28 30 31 28 27 28 28 29 27 23 21 20 20
16 17 19 20 20 21 22 22 23 22 23 24 26 26 28 28 26 29 30 30 29 26 27 24 23 26 27 27 27 27 27 26 27 29 29 28 28 26 27 27 29 23 20 20 19
16 17 18 19 21 21 22 22 23 23 22 23 27 28 29 28 28 29 30 30 28 26 26 24 26 29 29 28 28 28 26 26 28 29 29 28 26 26 25 27 27 26 24 23 23
16 16 17 20 20 21 22 22 23 23 16 21 25 28 29 29 28 30 30 30 27 26 26 25 28 28 28 28 27 29 27 29 28 26 24 27 24 23 20 22 22 21 22 22 21
15 16 17 18 20 20 21 22 23 23 19 26 26 30 30 29 30 30 31 30 27 27 27 25 28 27 29 29 31 28 30 30 30 28 27 27 22 23 19 22 23 22 21 21 22
15 16 17 17 19 20 21 22 23 17 18 25 29 27 27 28 29 30 30 30 31 27 27 26 30 30 29 31 31 31 30 25 22 22 23 25 24 22 20 21 21 23 22 21 23
15 15 16 17 19 19 20 21 16 16 23 26 28 27 25 26 27 28 28 27 25 26 24 26 27 27 30 30 28 28 22 21 23 21 23 24 23 24 23 21 23 23 23 22 22
15 16 17 18 19 18 19 16 17 20 21 25 26 25 27 26 26 27 26 25 25 25 23 24 24 28 30 29 27 27 22 20 25 22 24 24 26 25 22 22 23 22 21 20 23
16 17 18 19 18 18 18 13 15 19 24 24 24 26 25 26 27 26 24 24 25 24 24 21 23 28 29 29 28 27 25 23 22 22 22 22 23 23 22 21 19 19 24 25 24
16 17 19 18 19 18 14 13 16 22 23 22 23 24 23 24 24 26 25 25 27 26 26 24 24 26 29 31 28 27 26 26 19 25 24 22 25 21 19 19 19 18 19 21 22
15 16 19 18 18 18 13 13 19 23 24 23 22 24 24 24 24 24 25 26 27 27 24 23 23 28 29 27 26 27 26 23 21 20 21 21 21 21 18 19 17 18 22 23 24
15 13 19 18 17 15 14 17 21 21 23 22 23 23 25 23 23 25 25 26 28 26 25 23 21 23 26 28 29 26 26 22 21 23 19 20 18 19 17 17 20 22 26 27 27
14 15 19 19 14 14 16 19 21 21 21 22 23 23 24 24 24 24 25 27 27 26 27 25 20 21 23 23 26 27 27 24 20 18 20 20 17 18 18 17 20 24 26 26 27
13 12 18 19 19 17 17 17 19 23 22 23 23 23 21 21 22 23 23 26 27 25 27 24 19 21 21 23 25 27 27 25 22 21 21 20 16 16 17 17 17 21 24 25 25
13 13 17 14 16 15 16 17 19 20 23 24 23 23 22 22 20 22 22 22 24 25 24 21 23 25 23 24 27 27 27 26 26 23 24 19 17 17 18 18 18 22 19 21 22
13 14 15 16 17 16 14 17 19 21 21 21 22 23 22 22 22 21 20 21 23 22 21 18 21 23 25 25 25 26 26 27 26 24 25 22 20 19 19 19 18 18 19 21 22
13 14 14 16 15 16 17 19 22 23 23 22 21 21 21 21 23 23 22 23 22 23 20 19 19 18 21 22 23 23 27 27 26 24 25 22 22 20 18 19 20 20 21 24 24
Height
1557 1556 1555 1553 1551 1549 1547 1546 1544 1543 1541 1540 1538 1536 1534 1532 1530 1529 1527 1529 1530 1530 1531 1532 1531 1533 1532 1530 1529 1529 1542 1547 1536 1538 1527 1518 1519 1513 1514 1516 1518 1519 1517 1526 1540
1556 1555 1554 1552 1550 1549 1548 1547 1545 1543 1542 1539 1537 1535 1533 1531 1528 1525 1526 1526 1527 1529 1530 1530 1529 1529 1527 1525 1525 1525 1537 1530 1513 1516 1516 1512 1515 1516 1516 1516 1521 1522 1527 1532 1537
1556 1554 1553 1552 1550 1549 1547 1546 1545 1543 1541 1538 1536 1533 1532 1529 1526 1522 1523 1525 1525 1527 1528 1528 1527 1527 1526 1523 1521 1519 1523 1509 1509 1506 1507 1507 1512 1518 1515 1514 1514 1523 1529 1534 1535
1555 1553 1552 1550 1549 1547 1546 1545 1543 1542 1540 1537 1535 1533 1530 1529 1531 1523 1523 1523 1524 1525 1526 1526 1526 1526 1526 1524 1520 1521 1513 1508 1499 1503 1504 1505 1512 1513 1506 1508 1512 1514 1522 1529 1528
1553 1552 1550 1549 1547 1545 1544 1543 1541 1540 1538 1536 1534 1532 1530 1529 1524 1523 1523 1522 1522 1523 1523 1524 1523 1523 1524 1519 1519 1518 1512 1508 1498 1503 1501 1506 1506 1501 1506 1511 1511 1517 1518 1522 1525
1552 1550 1548 1547 1545 1543 1542 1540 1539 1538 1536 1534 1532 1530 1529 1528 1523 1522 1522 1521 1521 1521 1522 1522 1521 1522 1521 1517 1519 1514 1509 1502 1502 1501 1504 1510 1507 1506 1509 1513 1513 1516 1515 1521 1520
1550 1548 1547 1545 1543 1541 1539 1538 1536 1535 1533 1532 1530 1528 1526 1522 1521 1522 1521 1520 1520 1520 1520 1522 1521 1521 1519 1516 1514 1512 1509 1500 1498 1502 1506 1507 1513 1508 1509 1512 1516 1519 1518 1522 1525
1548 1547 1544 1543 1541 1538 1537 1535 1534 1532 1531 1529 1528 1527 1522 1518 1519 1518 1519 1519 1518 1519 1518 1519 1520 1520 1518 1516 1514 1516 1514 1520 1497 1493 1503 1503 1522 1506 1503 1513 1515 1517 1514 1507 1517
1546 1544 1542 1541 1538 1536 1534 1532 1530 1529 1528 1527 1527 1525 1518 1516 1515 1515 1517 1516 1516 1517 1517 1517 1519 1518 1518 1523 1533 1528 1537 1525 1505 1491 1493 1501 1509 1495 1497 1512 1512 1512 1509 1509 1520
1544 1542 1540 1539 1537 1534 1532 1529 1527 1525 1525 1525 1524 1527 1516 1515 1514 1513 1515 1515 1515 1516 1514 1517 1516 1520 1525 1535 1554 1539 1533 1523 1516 1495 1490 1500 1506 1494 1494 1501 1510 1510 1509 1511 1519
1542 1540 1538 1536 1535 1532 1531 1527 1528 1527 1525 1522 1521 1518 1512 1512 1513 1513 1512 1513 1513 1514 1517 1514 1523 1533 1523 1521 1518 1524 1526 1525 1508 1495 1498 1500 1502 1493 1492 1500 1504 1504 1509 1514 1518
1539 1536 1535 1534 1533 1531 1530 1530 1531 1532 1523 1517 1514 1513 1509 1511 1514 1510 1511 1513 1512 1517 1513 1521 1529 1510 1511 1512 1515 1519 1526 1522 1508 1496 1501 1497 1497 1498 1495 1496 1495 1500 1507 1513 1517
1535 1534 1532 1531 1530 1530 1529 1530 1529 1529 1525 1508 1505 1505 1503 1508 1506 1505 1508 1509 1511 1515 1515 1527 1511 1505 1509 1509 1513 1513 1520 1517 1513 1499 1496 1502 1511 1506 1499 1492 1496 1500 1500 1507 1510
1533 1532 1530 1529 1531 1528 1529 1527 1526 1526 1536 1512 1500 1493 1495 1499 1501 1498 1502 1507 1508 1513 1511 1515 1501 1505 1507 1509 1504 1513 1501 1502 1507 1517 1537 1500 1545 1522 1515 1507 1502 1501 1501 1501 1510
1531 1529 1528 1526 1526 1527 1527 1525 1524 1526 1558 1497 1491 1488 1486 1493 1492 1491 1494 1501 1506 1506 1509 1512 1503 1505 1506 1501 1492 1503 1490 1497 1498 1509 1514 1514 1539 1525 1522 1518 1508 1504 1504 1504 1510
1528 1526 1526 1525 1524 1526 1524 1524 1526 1542 1552 1501 1485 1485 1488 1489 1489 1490 1493 1497 1499 1502 1500 1502 1494 1496 1495 1490 1489 1489 1493 1505 1514 1524 1545 1522 1528 1532 1523 1508 1505 1502 1502 1505 1511
1525 1523 1522 1522 1523 1524 1524 1525 1542 1552 1507 1500 1490 1485 1485 1489 1489 1490 1493 1498 1508 1516 1519 1504 1497 1491 1490 1493 1489 1494 1520 1555 1551 1558 1554 1516 1529 1515 1499 1501 1498 1497 1501 1510 1518
1521 1519 1518 1518 1521 1522 1523 1527 1544 1520 1510 1493 1491 1489 1494 1489 1488 1487 1494 1504 1496 1500 1517 1523 1528 1492 1485 1491 1500 1499 1516 1551 1556 1565 1543 1517 1527 1513 1500 1504 1509 1512 1520 1525 1524
1517 1514 1512 1514 1516 1519 1523 1539 1532 1517 1501 1501 1496 1496 1496 1485 1486 1489 1495 1498 1491 1492 1515 1525 1517 1486 1484 1483 1489 1497 1513 1505 1531 1535 1548 1535 1522 1510 1509 1506 1510 1514 1528 1529 1526
1514 1510 1507 1510 1512 1517 1523 1530 1518 1504 1501 1501 1508 1497 1507 1499 1497 1494 1495 1484 1484 1482 1481 1495 1517 1487 1480 1479 1478 1483 1487 1516 1535 1543 1553 1539 1525 1530 1527 1523 1521 1521 1525 1513 1517
1514 1510 1507 1510 1512 1517 1527 1524 1510 1501 1503 1502 1502 1502 1500 1501 1500 1499 1495 1484 1480 1476 1476 1486 1501 1488 1482 1488 1493 1491 1497 1504 1515 1530 1547 1556 1543 1519 1516 1508 1511 1515 1514 1512 1513
1513 1511 1507 1509 1515 1516 1519 1510 1507 1500 1501 1501 1495 1493 1492 1495 1499 1495 1496 1487 1481 1476 1482 1477 1494 1509 1493 1478 1475 1480 1489 1501 1527 1525 1530 1536 1548 1517 1514 1510 1506 1508 1503 1500 1501
1513 1509 1508 1509 1516 1515 1508 1505 1503 1500 1498 1497 1493 1489 1487 1492 1501 1491 1487 1481 1482 1477 1477 1478 1499 1516 1503 1493 1478 1482 1484 1489 1501 1514 1525 1539 1550 1520 1518 1514 1508 1502 1499 1499 1502
1515 1513 1508 1508 1507 1508 1509 1505 1502 1493 1491 1492 1491 1487 1491 1495 1492 1494 1491 1481 1482 1481 1475 1475 1496 1501 1518 1505 1490 1490 1483 1487 1493 1516 1517 1522 1535 1527 1520 1514 1506 1500 1494 1496 1501
1515 1511 1508 1510 1506 1504 1506 1503 1500 1498 1485 1485 1487 1488 1493 1499 1499 1495 1492 1488 1483 1481 1479 1482 1496 1487 1487 1484 1482 1486 1485 1483 1486 1493 1505 1511 1514 1510 1507 1501 1496 1493 1499 1498 1501
1515 1513 1509 1506 1502 1499 1501 1501 1497 1492 1491 1490 1487 1485 1487 1494 1496 1500 1497 1495 1491 1486 1487 1485 1498 1490 1488 1482 1483 1486 1484 1480 1478 1486 1489 1494 1501 1491 1496 1505 1506 1505 1501 1499 1501
1515 1512 1511 1503 1501 1501 1500 1497 1490 1487 1488 1488 1487 1488 1490 1491 1489 1489 1489 1487 1488 1491 1493 1494 1497 1504 1507 1490 1489 1504 1482 1481 1482 1479 1481 1496 1482 1491 1500 1497 1495 1498 1497 1495 1497
Wind_Speed
7 8 8 9 10 10 10 11 11 11 12 13 14 13 13 12 11 13 14 12 7 6 8 10 9 7 10 14 15 5 4 4 10 8 6 17 5 7 11 20 8 13 21 18 26
8 8 9 9 10 10 10 11 11 11 12 13 14 14 15 14 13 15 14 12 9 7 9 10 12 11 7 8 6 8 5 10 11 15 8 21 11 6 7 10 11 14 18 34 27
8 9 10 10 10 11 10 11 11 11 12 13 14 15 15 14 13 3 5 12 10 9 11 12 12 13 7 12 6 4 6 2 11 25 24 21 9 1 6 2 14 28 34 31 29
11 10 11 11 12 11 11 11 12 11 12 12 14 15 15 11 3 4 1 5 10 12 13 12 9 4 2 5 8 4 19 21 29 9 21 13 8 7 10 8 23 35 34 33 32
12 13 13 13 13 13 13 12 12 11 12 13 13 14 14 7 9 4 4 5 9 11 12 10 10 11 4 7 17 5 15 18 38 13 27 17 17 11 12 8 35 37 31 36 32
13 14 14 15 14 15 14 14 13 12 12 13 12 13 11 6 5 3 4 6 5 6 7 10 6 15 12 8 3 10 20 20 9 18 15 8 7 8 15 17 40 40 34 34 33
14 15 15 16 16 16 16 14 14 13 12 13 12 13 15 16 4 9 7 6 5 7 11 9 13 10 7 8 16 18 7 7 5 4 7 12 2 7 11 22 34 35 35 31 32
15 16 16 16 16 17 17 16 15 13 13 13 12 13 11 5 8 14 11 11 9 15 16 8 11 11 5 14 12 7 4 6 6 7 12 7 6 13 17 26 27 35 32 30 36
16 16 16 16 16 17 16 16 15 13 14 13 11 8 13 5 13 14 14 16 11 11 15 8 10 2 9 4 6 6 3 6 7 9 2 6 8 8 18 22 25 32 39 29 35
16 17 17 16 16 16 15 15 12 12 11 11 12 7 11 5 5 9 14 18 17 16 8 14 6 3 4 5 5 5 2 7 7 6 7 7 9 12 22 24 28 34 37 39 39
16 16 16 15 14 14 11 5 4 1 11 8 6 11 21 14 9 7 8 13 15 12 1 7 3 7 13 10 10 6 5 8 6 3 1 8 4 12 5 15 20 28 32 33 37
16 16 15 14 13 11 9 4 6 9 12 18 22 26 31 26 19 17 9 8 3 6 5 6 6 13 6 8 9 7 8 11 4 9 4 10 10 4 10 15 26 28 30 34 33
15 15 15 12 10 7 4 7 6 11 6 13 19 22 32 22 24 25 12 18 7 4 6 7 13 5 6 10 9 5 9 7 9 3 6 4 6 6 6 4 17 23 32 37 37
14 14 15 10 5 6 0 5 4 8 4 8 6 13 22 24 13 24 24 17 6 11 7 7 14 12 9 8 7 3 9 6 8 1 5 4 5 5 6 8 7 20 30 37 32
14 14 11 11 7 4 4 0 2 2 2 6 6 7 10 18 4 4 25 21 9 9 6 12 5 7 3 7 3 7 6 3 3 2 3 3 5 5 5 5 6 13 20 29 26
14 14 11 14 12 4 5 3 2 5 6 6 3 6 6 13 15 11 4 23 9 8 3 9 15 4 7 4 3 4 3 7 5 3 4 4 4 5 6 9 4 7 18 23 23
15 14 15 15 5 5 2 3 4 4 4 6 4 1 8 9 5 7 5 3 7 3 5 7 9 6 6 4 6 6 7 4 5 5 6 1 2 8 7 6 6 14 19 17 17
16 16 16 16 11 9 3 4 4 6 8 5 6 6 4 4 7 7 4 6 5 4 3 3 9 3 3 6 7 4 8 6 4 3 5 4 4 5 9 12 25 35 34 11 14
17 15 16 8 13 12 4 3 8 6 3 8 9 2 4 3 5 7 10 8 9 10 9 6 8 3 6 5 10 7 2 7 6 1 3 3 2 4 8 17 30 34 4 5 4
17 14 13 8 16 16 4 5 5 6 6 6 2 3 7 7 6 4 1 6 8 12 10 8 4 6 10 3 4 10 6 0 3 2 5 5 4 6 2 13 14 13 14 4 14
10 7 7 15 16 9 3 6 6 22 11 3 7 3 2 2 1 2 3 5 4 9 15 7 5 18 3 2 6 1 2 4 5 5 5 2 4 2 11 14 11 13 15 14 18
5 2 15 20 5 3 3 5 5 14 18 7 6 7 3 1 3 2 2 4 18 10 9 9 7 7 14 2 5 6 7 6 5 8 3 5 4 5 4 12 22 20 24 30 21
8 6 20 21 3 3 5 5 9 12 10 5 5 5 3 1 2 3 4 13 25 11 2 1 1 2 9 7 5 2 3 5 4 4 4 5 5 2 11 9 23 26 20 23 20
4 3 5 21 12 3 2 6 5 11 18 12 6 3 7 6 1 4 5 4 22 12 16 2 3 6 7 6 2 4 6 3 6 3 3 5 6 7 11 14 22 24 25 26 19
2 4 2 2 7 9 6 5 6 5 4 9 3 1 2 2 7 5 5 8 13 18 12 4 1 2 5 4 4 1 4 9 3 4 5 12 16 20 21 20 29 35 25 20 15
2 4 6 8 10 3 8 6 6 5 3 6 4 5 1 1 1 4 3 1 3 8 7 6 3 3 4 6 5 2 5 7 6 5 5 12 6 17 29 13 14 19 23 20 28
4 5 3 7 7 5 3 8 5 3 1 6 7 3 6 2 5 8 6 8 5 1 3 3 3 4 5 4 6 5 3 1 4 4 2 5 6 21 11 18 25 31 30 30 27
Wind_Direction
343 343 341 339 343 347 347 343 343 343 338 333 329 330 322 316 299 277 248 248 264 266 299 324 314 320 268 250 243 170 89 217 181 177 234 258 274 147 106 139 185 187 169 150 149
334 333 332 333 336 339 338 336 334 335 332 327 325 327 325 325 306 273 233 234 242 262 287 298 302 314 274 266 251 174 161 218 201 177 207 222 224 138 98 78 58 110 119 141 153
325 324 324 324 326 328 330 329 328 329 329 326 325 326 328 327 322 317 219 220 242 258 277 284 292 299 286 308 291 232 238 232 192 211 193 205 217 7 119 157 158 135 136 149 156
318 318 317 318 318 319 320 322 322 325 325 324 324 327 331 328 294 347 100 199 238 255 267 276 282 279 269 306 297 291 277 272 284 214 194 195 145 185 163 205 165 152 151 155 167
313 313 313 313 313 313 314 315 317 319 322 321 325 327 334 314 272 240 293 271 249 251 256 261 270 273 246 276 314 239 283 293 273 242 191 159 198 194 185 155 159 149 150 166 174
307 307 309 309 309 308 309 310 311 313 316 316 320 321 321 285 229 240 310 283 224 227 236 225 251 299 286 303 312 302 315 294 147 186 176 164 236 191 194 157 154 151 155 173 189
302 303 304 305 306 305 305 306 306 306 308 307 312 315 301 270 250 245 280 311 270 286 287 286 299 318 287 333 321 332 318 348 2 145 150 184 111 246 220 169 150 153 156 176 195
301 299 300 301 302 302 302 302 299 302 298 295 304 305 277 288 262 233 251 270 262 282 281 298 288 293 320 326 350 340 22 19 289 8 145 46 243 234 241 183 156 157 158 189 199
300 298 297 299 300 299 300 299 298 294 285 285 294 287 274 235 228 235 237 255 261 268 260 268 286 303 318 31 3 355 282 307 299 183 182 123 291 247 215 189 145 164 175 196 200
299 298 296 298 300 298 302 300 298 290 279 277 264 289 257 277 282 257 242 235 254 279 267 268 278 77 16 76 235 234 293 288 283 297 29 326 265 284 234 190 156 168 179 186 194
299 297 297 298 299 302 309 337 349 267 319 266 266 258 268 283 324 244 227 242 265 264 321 316 100 228 236 211 225 196 229 252 270 323 22 258 244 302 185 182 143 162 170 181 187
303 301 296 295 293 293 306 33 32 330 296 283 273 266 262 269 283 270 238 247 233 218 286 353 255 246 252 250 250 212 227 251 302 266 182 280 298 345 128 204 181 154 165 177 185
306 303 297 291 286 278 272 15 352 335 284 285 268 259 247 253 249 250 242 232 200 227 237 191 249 281 235 266 256 228 203 223 219 343 288 26 343 60 331 341 165 168 183 184 189
306 302 302 291 269 234 131 358 40 354 39 277 236 246 228 231 276 243 243 238 213 214 237 229 265 247 261 254 180 240 200 217 262 295 236 121 252 322 332 335 90 146 171 181 191
304 299 300 289 255 235 302 124 164 115 2 248 232 230 215 178 181 240 227 226 209 230 123 253 269 296 293 240 180 230 279 267 295 278 26 355 84 260 36 296 186 180 171 179 184
303 298 287 279 262 229 261 219 136 52 247 290 204 178 113 206 232 248 245 230 232 214 241 238 277 205 235 266 211 256 47 34 41 69 9 238 115 258 205 192 214 175 160 172 173
298 292 280 261 235 190 241 173 56 164 299 260 278 188 191 195 235 195 228 193 180 160 305 317 285 286 250 289 341 81 56 353 352 5 232 241 140 239 208 172 189 162 148 153 174
299 288 272 252 223 236 197 64 172 223 257 339 22 320 199 218 244 212 162 235 256 122 140 177 314 247 289 202 198 225 147 158 219 195 259 338 289 307 318 96 62 60 39 77 153
309 293 275 235 209 189 184 126 199 221 264 355 342 282 311 242 207 194 191 202 211 175 176 166 258 240 222 247 167 240 172 191 132 88 58 273 59 352 49 91 77 75 142 291 223
320 307 281 170 183 171 94 228 226 244 12 20 307 27 32 328 52 28 339 232 217 195 175 218 277 223 272 279 254 165 170 179 13 213 251 291 167 196 3 95 109 136 189 228 193
326 319 139 156 162 169 169 231 275 271 318 304 307 292 290 38 0 351 268 314 289 250 180 166 143 269 171 172 231 283 224 80 125 141 171 188 289 242 180 156 145 165 153 176 188
306 327 154 156 153 189 203 205 231 272 297 279 263 192 218 90 324 326 326 247 354 321 172 200 172 237 243 266 206 172 224 143 128 266 157 143 258 287 206 154 152 170 182 195 179
325 285 176 178 167 241 282 270 248 270 268 279 282 24 4 353 360 293 326 326 7 351 15 154 185 200 307 344 354 24 79 144 136 66 192 130 238 290 185 182 177 186 190 193 193
308 334 209 207 233 176 313 272 253 283 244 250 238 22 44 1 62 285 339 344 9 2 6 30 90 156 196 203 214 332 319 106 114 93 188 173 171 226 207 189 218 203 185 177 189
259 260 336 284 277 245 183 286 309 313 276 180 36 167 136 322 349 344 6 343 356 2 4 77 178 227 217 186 130 228 6 342 190 198 160 175 161 200 199 207 201 192 189 182 205
305 336 336 284 277 267 158 245 239 279 56 325 161 243 247 113 205 297 43 93 277 339 359 347 344 338 304 343 33 36 353 321 312 171 213 162 153 200 199 203 217 209 201 203 182
351 294 295 300 339 19 337 320 276 309 305 87 53 76 43 104 14 334 321 301 242 300 312 46 27 31 291 346 359 1 193 158 285 260 162 171 204 168 182 201 212 220 215 193 184